Phnom Penh, Cambodia

3:30 PM ICT on February 26, 2017 (GMT +0700)
Pochentong International

Weather History for VDPP - March, 2014

Change the Weather History Date:

Sunday, March 16, 2014

  Actual Average Record
Temperature  
Mean Temperature 88 °F -  
Max Temperature 96 °F 91 °F 98 °F (2016)
Min Temperature 80 °F 77 °F 75 °F (2003)
Cooling Degree Days 23    
Growing Degree Days 38 (Base 50)    
Moisture  
Dew Point 65 °F    
Average Humidity 44    
Maximum Humidity 61    
Minimum Humidity 30    
Precipitation  
Precipitation 0.00 in - - ()
Sea Level Pressure  
Sea Level Pressure 29.87 in    
Wind  
Wind Speed 7 mph ()    
Max Wind Speed 14 mph    
Max Gust Speed -    
Visibility 5.8 miles    
Events      
Averages and records for this station are not official NWS values.
T = Trace of Precipitation, MM = Missing Value Source: Averaged Metar Reports

Daily Weather History Graph

Daily Weather History Graph

Search for Another Location

Airport or City:

Trip Planner

Search our weather history database for the weather conditions in past years. The results will help you decide how hot, cold, wet, or windy it might be!

Date:

Astronomy

Mar. 16, 2014 Rise Set
Actual Time 6:07 AM ICT 6:11 PM ICT
Civil Twilight 5:46 AM ICT 6:32 PM ICT
Nautical Twilight 5:21 AM ICT 6:56 PM ICT
Astronomical Twilight 4:57 AM ICT 7:21 PM ICT
Moon 5:53 PM ICT (3/16) 5:32 AM ICT (3/16)
Length of Visible Light 12h 45m
Length of Day
12h 03m
Full, 100% of the Moon is Illuminated
Mar 16
Full
Mar 17
Full
Mar 24
Last Quarter
Mar 31
New
Apr 7
First Quarter

Hourly Weather History & Observations

Time (ICT) Temp. Heat Index Dew Point Humidity Pressure Visibility Wind Dir Wind Speed Gust Speed Precip Events Conditions
12:00 AM 84.2 °F 86.6 °F 66.2 °F 55% 29.92 in 5.6 mi SSW 6.9 mph - N/A   Unknown
12:30 AM 84.2 °F 86.6 °F 66.2 °F 55% 29.92 in 5.6 mi SSW 6.9 mph - N/A   Unknown
1:00 AM 84.2 °F 86.6 °F 66.2 °F 55% 29.89 in 5.6 mi South 8.1 mph - N/A   Unknown
6:00 AM 80.6 °F 82.7 °F 66.2 °F 61% 29.89 in 5.6 mi East 3.5 mph - N/A   Unknown
6:30 AM 82.4 °F 84.6 °F 66.2 °F 58% 29.89 in 5.6 mi East 2.3 mph - N/A   Scattered Clouds
7:00 AM 82.4 °F 84.6 °F 66.2 °F 58% 29.92 in 5.6 mi Calm Calm - N/A   Scattered Clouds
7:30 AM 84.2 °F 86.6 °F 66.2 °F 55% 29.92 in 5.6 mi East 4.6 mph - N/A   Scattered Clouds
8:00 AM 86.0 °F 89.4 °F 68.0 °F 55% 29.92 in 5.6 mi ENE 8.1 mph - N/A   Scattered Clouds
8:30 AM 86.0 °F 87.3 °F 64.4 °F 48% 29.95 in 5.6 mi ENE 10.4 mph - N/A   Scattered Clouds
9:00 AM 86.0 °F 86.6 °F 62.6 °F 45% 29.95 in 6.2 mi NE 9.2 mph - N/A   Scattered Clouds
9:30 AM 87.8 °F 88.5 °F 62.6 °F 43% 29.95 in 6.2 mi ENE 8.1 mph - N/A   Scattered Clouds
10:00 AM 89.6 °F 90.1 °F 62.6 °F 40% 29.95 in 6.2 mi ENE 9.2 mph - N/A   Scattered Clouds
10:30 AM 89.6 °F 90.1 °F 62.6 °F 40% 29.92 in 5.6 mi NE 10.4 mph - N/A   Scattered Clouds
11:00 AM 91.4 °F 92.1 °F 62.6 °F 38% 29.92 in 5.6 mi ENE 6.9 mph - N/A   Scattered Clouds
11:30 AM 91.4 °F 92.1 °F 62.6 °F 38% 29.92 in 5.6 mi East 3.5 mph - N/A   Scattered Clouds
12:00 PM 93.2 °F 94.1 °F 62.6 °F 36% 29.89 in 5.6 mi SE 6.9 mph - N/A   Scattered Clouds
12:30 PM 93.2 °F 94.1 °F 62.6 °F 36% 29.86 in 5.6 mi East 5.8 mph - N/A   Scattered Clouds
1:00 PM 95.0 °F 96.0 °F 62.6 °F 34% 29.86 in - Variable 3.5 mph - N/A   Clear
1:30 PM 95.0 °F 96.0 °F 62.6 °F 34% 29.83 in - East 5.8 mph - N/A   Clear
2:00 PM 95.0 °F 95.2 °F 60.8 °F 32% 29.83 in 6.2 mi East 6.9 mph - N/A   Partly Cloudy
2:30 PM 96.8 °F 97.1 °F 60.8 °F 30% 29.80 in 6.2 mi SSE 8.1 mph - N/A   Partly Cloudy
3:00 PM 95.0 °F 96.0 °F 62.6 °F 34% 29.80 in 6.2 mi SE 6.9 mph - N/A   Partly Cloudy
3:30 PM 96.8 °F 97.1 °F 60.8 °F 30% 29.77 in 6.2 mi South 8.1 mph - N/A   Partly Cloudy
4:00 PM 96.8 °F 97.1 °F 60.8 °F 30% 29.77 in 6.2 mi SSE 6.9 mph - N/A   Partly Cloudy
4:30 PM 96.8 °F 97.1 °F 60.8 °F 30% 29.77 in 6.2 mi SSE 9.2 mph - N/A   Partly Cloudy
5:00 PM 96.8 °F 97.1 °F 60.8 °F 30% 29.80 in 6.2 mi SSE 5.8 mph - N/A   Partly Cloudy
5:30 PM 96.8 °F 99.0 °F 64.4 °F 34% 29.80 in 6.2 mi South 8.1 mph - N/A   Partly Cloudy
6:00 PM 96.8 °F 99.0 °F 64.4 °F 34% 29.80 in 6.2 mi South 6.9 mph - N/A   Partly Cloudy
6:30 PM 95.0 °F 96.0 °F 62.6 °F 34% 29.80 in 5.6 mi South 5.8 mph - N/A   Partly Cloudy
7:00 PM 93.2 °F 96.2 °F 66.2 °F 41% 29.83 in 5.6 mi SSE 8.1 mph - N/A   Partly Cloudy
7:30 PM 91.4 °F 95.4 °F 68.0 °F 46% 29.83 in 5.6 mi South 11.5 mph - N/A   Partly Cloudy
8:00 PM 91.4 °F 96.8 °F 69.8 °F 49% 29.86 in 5.6 mi South 11.5 mph - N/A   Partly Cloudy
8:30 PM 89.6 °F 93.4 °F 68.0 °F 49% 29.86 in 5.6 mi South 11.5 mph - N/A   Partly Cloudy
9:00 PM 89.6 °F 94.7 °F 69.8 °F 52% 29.86 in 5.6 mi SSE 10.4 mph - N/A   Partly Cloudy
9:30 PM 87.8 °F 93.8 °F 71.6 °F 58% 29.89 in 5.6 mi South 10.4 mph - N/A   Partly Cloudy
10:00 PM 87.8 °F 92.6 °F 69.8 °F 55% 29.89 in 5.6 mi South 13.8 mph - N/A   Partly Cloudy
10:30 PM 87.8 °F 92.6 °F 69.8 °F 55% 29.89 in 5.6 mi South 13.8 mph - N/A   Partly Cloudy
11:00 PM 87.8 °F 92.6 °F 69.8 °F 55% 29.89 in 5.6 mi South 12.7 mph - N/A   Partly Cloudy
11:30 PM 86.0 °F 90.4 °F 69.8 °F 58% 29.89 in 5.6 mi South 13.8 mph - N/A   Partly Cloudy